Temp
-10 -10 -11 -11 -11 -11 -11 -11 -11 -11 -11 -11 -12 -12 -12 -12 -12 -13 -13 -13 -14 -14 -14 -14 -15 -15 -15 -15 -15 -15 -15 -15 -15 -15 -15 -15 -15 -15 -15 -15 -15 -14 -14
-10 -11 -11 -11 -11 -11 -11 -11 -11 -11 -11 -12 -12 -12 -12 -12 -13 -13 -13 -14 -14 -14 -15 -15 -15 -15 -16 -16 -16 -16 -16 -16 -15 -15 -15 -15 -15 -15 -15 -15 -15 -14 -15
-11 -11 -11 -11 -12 -11 -11 -11 -11 -11 -12 -12 -13 -13 -13 -13 -13 -13 -14 -14 -14 -15 -15 -15 -16 -16 -16 -17 -17 -16 -16 -16 -16 -16 -16 -16 -16 -16 -16 -16 -16 -15 -15
-11 -12 -12 -12 -12 -12 -11 -12 -12 -13 -13 -13 -12 -13 -13 -13 -14 -14 -14 -14 -15 -15 -15 -16 -16 -17 -18 -18 -19 -19 -18 -18 -17 -17 -17 -16 -16 -16 -16 -16 -16 -15 -15
-12 -12 -12 -13 -12 -12 -12 -12 -13 -13 -13 -13 -13 -13 -14 -14 -14 -14 -15 -15 -15 -15 -16 -16 -17 -19 -20 -21 -20 -21 -20 -20 -20 -19 -19 -18 -18 -17 -17 -17 -16 -16 -16
-13 -13 -13 -12 -12 -13 -12 -13 -13 -14 -13 -13 -13 -14 -14 -14 -14 -15 -15 -16 -16 -16 -16 -17 -18 -20 -20 -21 -21 -21 -21 -20 -20 -20 -20 -20 -20 -19 -19 -18 -18 -18 -18
-12 -12 -13 -12 -12 -13 -14 -14 -13 -13 -13 -14 -14 -14 -14 -14 -15 -16 -15 -16 -16 -17 -17 -19 -19 -20 -19 -20 -21 -21 -20 -20 -20 -20 -20 -20 -20 -20 -20 -20 -19 -19 -19
-13 -13 -13 -13 -13 -13 -13 -13 -13 -13 -14 -14 -14 -14 -14 -15 -15 -16 -16 -16 -17 -17 -18 -19 -19 -20 -20 -20 -20 -20 -21 -21 -20 -20 -20 -20 -21 -21 -21 -21 -20 -20 -19
-13 -12 -13 -13 -13 -14 -14 -14 -14 -14 -14 -14 -14 -14 -15 -16 -16 -16 -17 -17 -17 -18 -19 -19 -19 -19 -19 -20 -20 -20 -20 -20 -20 -20 -20 -21 -22 -22 -22 -22 -22 -21 -20
-13 -13 -14 -14 -14 -14 -14 -14 -14 -14 -14 -14 -15 -16 -16 -16 -16 -17 -17 -18 -18 -18 -19 -19 -19 -19 -19 -19 -19 -19 -20 -20 -20 -21 -21 -21 -21 -22 -22 -23 -23 -22 -21
-14 -14 -14 -14 -14 -14 -14 -14 -15 -15 -15 -15 -16 -16 -16 -16 -17 -17 -17 -18 -18 -19 -19 -19 -19 -19 -20 -20 -20 -20 -20 -20 -20 -20 -21 -21 -21 -22 -22 -23 -23 -23 -22
-14 -14 -14 -15 -15 -15 -15 -15 -15 -15 -16 -17 -17 -17 -17 -17 -17 -18 -18 -18 -19 -19 -19 -19 -19 -20 -20 -20 -20 -20 -20 -20 -20 -20 -21 -21 -21 -22 -22 -23 -23 -23 -22
-15 -15 -15 -15 -15 -15 -16 -16 -16 -16 -17 -16 -17 -18 -18 -18 -18 -18 -18 -19 -19 -19 -19 -19 -20 -20 -20 -20 -20 -20 -21 -21 -21 -20 -21 -21 -22 -22 -22 -23 -23 -23 -23
-15 -15 -15 -16 -16 -16 -16 -16 -16 -16 -16 -17 -18 -18 -18 -18 -19 -19 -19 -19 -19 -19 -20 -20 -20 -20 -20 -20 -20 -20 -21 -21 -21 -21 -21 -22 -22 -22 -22 -23 -23 -23 -23
-15 -16 -17 -16 -17 -17 -17 -17 -17 -17 -17 -18 -18 -19 -19 -19 -19 -19 -19 -19 -19 -20 -20 -20 -20 -20 -20 -20 -20 -20 -21 -21 -21 -21 -22 -22 -21 -22 -23 -23 -23 -23 -23
-18 -18 -19 -19 -19 -19 -18 -18 -17 -18 -19 -19 -20 -20 -20 -20 -20 -20 -20 -20 -20 -20 -20 -20 -21 -20 -20 -20 -20 -20 -20 -21 -21 -22 -22 -22 -22 -22 -22 -23 -23 -23 -23
-18 -19 -19 -20 -19 -19 -19 -18 -19 -20 -20 -20 -20 -21 -21 -21 -21 -21 -21 -20 -20 -20 -21 -21 -21 -21 -21 -20 -20 -21 -21 -21 -21 -22 -22 -22 -22 -22 -23 -23 -22 -23 -23
-20 -19 -20 -20 -20 -20 -20 -19 -20 -20 -20 -21 -21 -22 -21 -21 -21 -21 -21 -20 -20 -20 -21 -21 -21 -21 -21 -21 -21 -21 -21 -21 -21 -21 -21 -22 -22 -22 -22 -22 -22 -22 -22
-19 -19 -20 -20 -20 -21 -21 -20 -21 -21 -21 -22 -22 -21 -21 -21 -21 -21 -21 -21 -21 -21 -21 -21 -21 -21 -21 -21 -21 -21 -21 -21 -22 -22 -21 -21 -22 -22 -22 -22 -21 -22 -22
-21 -21 -20 -21 -22 -21 -21 -21 -21 -22 -22 -21 -21 -21 -21 -21 -21 -21 -22 -21 -22 -21 -21 -21 -21 -21 -21 -21 -21 -21 -21 -22 -22 -22 -21 -21 -21 -22 -21 -21 -21 -21 -22
-23 -23 -22 -22 -22 -22 -22 -22 -21 -21 -21 -21 -21 -21 -21 -21 -21 -21 -22 -22 -22 -22 -22 -21 -21 -21 -21 -21 -21 -21 -21 -22 -22 -22 -22 -21 -21 -22 -21 -21 -21 -21 -21
-22 -22 -22 -22 -22 -22 -22 -21 -21 -21 -21 -21 -21 -22 -22 -22 -22 -22 -22 -22 -21 -21 -21 -21 -21 -21 -21 -21 -21 -21 -21 -22 -22 -22 -22 -22 -21 -21 -22 -21 -22 -22 -21
-21 -22 -22 -22 -22 -21 -21 -21 -21 -21 -21 -21 -22 -22 -22 -22 -21 -22 -22 -21 -21 -21 -21 -21 -21 -21 -21 -21 -21 -21 -21 -21 -22 -22 -22 -22 -22 -22 -22 -22 -22 -22 -21
-21 -21 -21 -21 -21 -21 -21 -21 -21 -21 -21 -21 -21 -21 -21 -21 -21 -21 -21 -21 -21 -21 -21 -21 -21 -21 -21 -21 -21 -21 -21 -21 -22 -22 -22 -22 -22 -22 -22 -22 -22 -22 -22
-20 -21 -22 -22 -21 -21 -21 -21 -21 -21 -20 -21 -21 -21 -21 -21 -21 -20 -20 -20 -21 -21 -21 -21 -21 -21 -21 -21 -21 -21 -21 -22 -22 -22 -22 -22 -23 -23 -22 -22 -22 -22 -21
-20 -21 -22 -22 -21 -21 -21 -21 -21 -20 -20 -20 -20 -20 -20 -20 -20 -20 -20 -20 -20 -20 -21 -20 -21 -21 -21 -21 -21 -21 -21 -22 -22 -22 -22 -22 -22 -22 -22 -22 -22 -21 -21
Height
5840 5837 5835 5833 5829 5824 5820 5815 5812 5808 5806 5802 5798 5793 5789 5783 5778 5773 5768 5762 5756 5750 5744 5737 5731 5727 5722 5717 5712 5708 5705 5701 5700 5700 5698 5696 5695 5695 5696 5697 5700 5699 5700
5830 5829 5827 5823 5820 5816 5812 5808 5805 5801 5797 5792 5787 5783 5778 5772 5766 5761 5756 5750 5743 5736 5729 5723 5717 5711 5704 5699 5695 5691 5688 5684 5683 5683 5682 5680 5678 5677 5681 5683 5687 5687 5687
5823 5821 5818 5815 5809 5806 5804 5800 5796 5792 5787 5782 5776 5772 5767 5762 5755 5749 5743 5736 5729 5722 5714 5706 5698 5691 5686 5680 5675 5671 5667 5665 5663 5664 5664 5663 5662 5661 5663 5667 5670 5672 5675
5814 5812 5808 5804 5802 5799 5795 5791 5786 5781 5776 5771 5766 5761 5754 5747 5741 5735 5730 5723 5714 5705 5696 5687 5678 5669 5661 5657 5653 5650 5648 5647 5645 5644 5644 5644 5645 5645 5645 5647 5653 5656 5661
5804 5802 5798 5796 5793 5789 5785 5781 5776 5771 5766 5761 5755 5750 5743 5736 5729 5723 5715 5706 5697 5690 5680 5670 5658 5649 5643 5638 5635 5633 5631 5630 5629 5628 5627 5626 5627 5627 5628 5629 5632 5637 5643
5795 5793 5790 5787 5783 5779 5775 5769 5765 5762 5758 5752 5745 5739 5731 5721 5714 5707 5700 5693 5686 5678 5667 5654 5641 5634 5632 5628 5622 5619 5618 5617 5616 5615 5614 5611 5610 5611 5611 5614 5617 5621 5627
5787 5784 5781 5776 5773 5769 5765 5762 5757 5751 5745 5738 5732 5724 5713 5707 5702 5696 5691 5682 5675 5666 5654 5645 5637 5632 5626 5621 5617 5613 5609 5606 5604 5601 5599 5595 5596 5594 5597 5600 5603 5608 5612
5777 5774 5771 5767 5764 5761 5757 5751 5746 5739 5730 5722 5716 5710 5704 5697 5691 5686 5679 5672 5664 5655 5646 5639 5633 5627 5621 5616 5612 5608 5603 5598 5593 5590 5587 5583 5581 5579 5580 5583 5587 5593 5598
5767 5764 5762 5760 5755 5749 5744 5738 5729 5722 5717 5712 5705 5698 5692 5685 5681 5676 5669 5662 5654 5645 5639 5633 5628 5622 5616 5611 5607 5602 5597 5590 5583 5578 5574 5571 5568 5567 5566 5568 5572 5576 5582
5758 5754 5750 5746 5741 5734 5728 5722 5718 5713 5707 5700 5692 5686 5680 5675 5670 5666 5659 5653 5645 5638 5632 5627 5622 5617 5611 5605 5600 5594 5589 5581 5575 5569 5563 5560 5557 5555 5554 5554 5557 5562 5568
5746 5742 5738 5734 5729 5723 5717 5712 5706 5700 5693 5686 5680 5673 5668 5666 5660 5656 5650 5644 5637 5630 5625 5620 5615 5610 5604 5598 5591 5585 5578 5571 5565 5560 5555 5551 5547 5545 5542 5541 5545 5550 5555
5735 5730 5726 5722 5716 5709 5704 5699 5693 5687 5681 5675 5668 5662 5657 5654 5649 5645 5639 5634 5628 5622 5618 5613 5608 5604 5597 5591 5584 5575 5567 5560 5555 5551 5547 5544 5540 5537 5534 5532 5535 5540 5545
5722 5718 5714 5709 5703 5698 5693 5687 5680 5674 5667 5661 5656 5652 5647 5642 5637 5633 5628 5623 5619 5613 5609 5604 5600 5595 5589 5582 5575 5564 5557 5552 5548 5544 5540 5536 5532 5528 5526 5525 5527 5531 5535
5711 5706 5700 5694 5690 5684 5678 5672 5666 5659 5654 5650 5645 5641 5636 5631 5626 5622 5617 5614 5610 5605 5600 5595 5592 5587 5581 5574 5566 5557 5551 5546 5542 5538 5534 5529 5524 5520 5518 5517 5519 5522 5527
5694 5690 5684 5679 5673 5668 5663 5657 5652 5648 5643 5639 5634 5629 5624 5620 5616 5612 5607 5604 5601 5596 5591 5587 5583 5578 5572 5566 5559 5553 5547 5542 5537 5532 5528 5523 5518 5515 5512 5510 5511 5515 5520
5680 5674 5669 5662 5657 5653 5648 5645 5642 5637 5632 5628 5623 5618 5613 5609 5605 5601 5598 5595 5592 5588 5585 5581 5577 5571 5566 5560 5554 5548 5543 5538 5533 5529 5525 5520 5515 5512 5508 5506 5507 5511 5515
5667 5660 5654 5651 5646 5642 5640 5636 5631 5626 5622 5618 5612 5607 5603 5599 5596 5593 5590 5587 5584 5581 5578 5575 5571 5565 5559 5553 5548 5543 5537 5533 5528 5525 5522 5518 5513 5509 5506 5505 5506 5509 5512
5655 5648 5643 5639 5636 5633 5630 5627 5622 5617 5612 5608 5602 5598 5595 5592 5589 5586 5584 5581 5578 5575 5573 5569 5564 5559 5554 5549 5543 5537 5532 5528 5524 5520 5518 5516 5513 5510 5507 5505 5507 5510 5513
5640 5635 5631 5629 5626 5623 5620 5617 5613 5608 5604 5601 5596 5593 5589 5585 5582 5580 5578 5576 5572 5569 5567 5564 5560 5556 5551 5545 5539 5533 5527 5523 5519 5517 5516 5515 5513 5511 5510 5510 5511 5514 5517
5626 5622 5617 5616 5615 5614 5612 5609 5605 5602 5599 5595 5591 5587 5583 5579 5576 5574 5572 5570 5567 5565 5563 5561 5557 5553 5548 5542 5536 5531 5525 5520 5517 5515 5515 5516 5515 5513 5514 5515 5518 5520 5522
5613 5610 5610 5610 5609 5609 5607 5604 5601 5598 5594 5591 5586 5582 5579 5575 5572 5570 5568 5566 5564 5563 5561 5559 5556 5552 5546 5540 5536 5530 5525 5520 5517 5515 5515 5515 5517 5516 5518 5520 5521 5523 5525
5614 5612 5610 5609 5608 5606 5603 5600 5597 5594 5590 5587 5584 5580 5576 5573 5570 5568 5566 5564 5563 5563 5561 5559 5555 5551 5546 5541 5536 5531 5526 5522 5519 5516 5515 5515 5517 5519 5520 5523 5525 5527 5532
5617 5614 5611 5609 5607 5604 5601 5598 5595 5592 5588 5585 5581 5577 5573 5570 5569 5567 5566 5565 5565 5563 5562 5559 5556 5552 5548 5543 5538 5534 5529 5525 5521 5518 5516 5515 5516 5519 5522 5525 5528 5532 5536
5619 5616 5613 5609 5607 5605 5602 5598 5594 5590 5587 5583 5579 5575 5572 5571 5570 5569 5568 5568 5567 5565 5564 5561 5558 5555 5551 5547 5543 5538 5534 5529 5525 5521 5517 5515 5515 5517 5521 5524 5528 5532 5536
5622 5618 5614 5611 5609 5606 5603 5599 5595 5591 5587 5584 5581 5577 5575 5574 5573 5573 5572 5571 5569 5568 5566 5564 5562 5558 5555 5551 5547 5544 5540 5535 5530 5525 5520 5517 5515 5515 5518 5523 5528 5532 5535
5626 5620 5617 5615 5611 5608 5605 5601 5597 5594 5591 5588 5585 5583 5581 5580 5579 5578 5576 5575 5573 5571 5569 5567 5565 5562 5559 5556 5552 5549 5545 5541 5537 5532 5527 5522 5519 5518 5519 5521 5525 5530 5535
Wind_Speed
21 22 25 28 29 28 30 33 35 38 36 38 38 40 45 48 50 51 53 54 55 55 56 57 58 59 60 59 59 58 57 56 54 51 50 52 54 53 51 46 43 50 35
22 24 27 27 27 32 34 36 39 38 39 38 42 43 46 49 51 53 54 54 52 53 56 58 59 59 60 59 58 57 57 56 55 53 51 52 54 55 51 49 46 45 46
25 25 25 27 31 37 38 41 42 41 39 41 42 45 46 49 50 51 52 53 56 58 59 61 62 62 60 59 58 57 58 57 55 53 52 52 53 55 54 49 46 43 41
27 29 31 33 34 40 43 44 42 42 42 43 47 49 50 49 49 51 53 54 56 59 64 67 70 70 62 56 53 54 55 56 57 56 55 54 54 55 57 55 51 49 45
27 32 33 36 37 41 45 42 40 43 45 47 48 49 48 46 48 50 53 54 60 63 67 69 68 59 54 50 51 50 51 51 51 51 52 54 54 55 56 56 53 49 45
27 31 34 35 41 43 42 40 42 44 47 45 44 45 44 46 50 53 54 56 58 63 66 59 47 34 28 33 33 35 39 40 44 45 43 45 47 48 48 49 46 38 34
29 29 32 39 35 42 40 41 45 46 45 45 46 47 48 50 50 50 54 55 59 59 54 36 28 27 25 26 30 29 31 33 34 38 40 43 45 47 46 46 44 39 35
28 33 36 36 39 40 42 45 46 46 45 46 47 48 49 48 49 52 51 54 52 51 38 26 23 23 24 26 28 30 31 33 36 36 34 35 38 39 41 42 43 41 38
29 34 35 39 39 43 45 46 47 48 47 48 49 49 48 49 49 48 49 49 47 40 30 24 22 24 25 27 29 30 32 34 37 37 34 33 32 33 37 39 37 40 41
31 32 37 44 45 44 45 47 48 48 48 49 49 46 48 50 48 46 47 42 42 34 26 24 27 26 27 30 30 33 35 39 35 36 33 29 28 32 35 35 35 33 34
40 38 45 46 46 47 47 48 48 49 49 48 47 48 49 46 43 44 44 37 35 29 23 27 29 30 30 33 35 37 39 38 34 32 27 26 26 27 29 31 32 31 30
44 46 48 49 48 47 47 47 47 48 47 47 47 46 43 42 43 42 39 35 31 27 27 28 30 28 32 35 37 43 41 34 29 27 23 24 24 25 24 22 27 30 30
47 48 48 47 46 47 46 46 46 46 47 48 45 42 42 43 41 38 35 34 31 30 29 29 31 32 36 39 41 37 29 26 24 26 23 23 24 24 21 20 23 26 29
49 49 49 48 49 48 45 44 45 46 47 46 43 44 43 40 37 36 35 34 33 31 31 32 32 33 37 38 37 34 30 25 22 22 21 26 26 20 19 19 18 25 25
53 52 53 51 49 48 47 46 46 48 47 44 43 41 39 38 37 37 35 32 32 32 32 32 32 34 34 36 32 29 25 26 21 19 20 27 22 16 17 15 17 19 22
52 52 50 53 51 46 44 43 46 46 45 42 40 39 38 37 36 34 31 30 31 32 32 32 32 32 34 32 27 29 25 23 21 18 17 22 20 15 10 9 11 16 20
54 52 54 56 51 39 40 47 48 44 41 40 39 37 34 32 30 29 29 28 29 30 31 31 30 32 32 30 26 26 26 24 21 19 14 17 14 11 8 3 6 9 11
43 49 54 47 32 34 42 47 43 39 36 33 30 29 29 29 30 29 28 29 29 29 27 28 29 27 27 26 27 28 28 25 21 17 11 11 10 8 12 6 5 6 10
45 50 43 39 45 47 44 41 34 31 27 25 27 29 32 34 33 31 30 28 27 25 23 22 22 23 22 24 27 27 24 21 16 13 7 5 8 7 7 14 14 11 5
61 61 61 56 40 41 33 28 24 23 24 27 30 32 32 32 30 27 22 20 19 17 16 17 18 19 21 25 23 22 21 18 14 7 3 2 4 8 5 8 9 10 12
27 24 21 20 21 22 19 20 21 24 24 23 24 24 25 26 26 20 17 14 12 11 13 14 17 19 22 21 19 19 18 17 14 7 2 5 4 5 12 11 9 7 8
16 16 13 13 13 15 17 18 18 19 21 20 20 22 23 21 19 16 13 8 8 9 10 14 17 19 20 19 18 19 18 17 15 12 4 3 10 7 6 12 14 12 17
16 15 14 13 13 14 15 15 16 18 19 20 19 19 18 14 11 11 8 7 9 9 12 14 16 17 17 19 20 21 21 20 18 15 9 2 9 15 12 11 16 18 19
19 17 16 15 14 15 16 16 17 18 18 17 16 15 13 12 12 10 10 10 11 13 14 15 16 16 19 21 22 23 24 24 23 20 15 8 1 13 22 19 18 17 18
19 17 15 15 16 16 17 18 18 17 17 17 17 16 16 17 15 13 14 14 14 13 14 15 16 17 18 20 21 22 23 25 27 26 23 18 10 5 12 25 25 21 17
26 24 19 18 19 19 21 23 22 19 18 19 20 20 20 19 18 17 17 16 15 13 13 15 16 17 18 19 21 22 24 24 26 28 29 26 20 13 10 13 19 24 23
Wind_Direction
300 310 315 312 316 318 322 319 321 321 313 309 310 310 312 310 309 308 306 306 305 302 299 297 294 292 289 287 286 285 283 281 279 277 273 271 271 272 271 271 271 261 260
301 308 313 318 320 324 320 317 317 316 310 311 312 311 309 308 308 307 307 306 305 302 300 298 296 295 292 289 288 286 283 281 278 277 275 272 270 271 271 270 268 266 274
294 297 303 311 322 324 318 316 315 311 309 311 312 310 308 307 307 308 308 307 305 304 305 303 300 297 294 290 284 281 278 277 275 273 270 269 270 270 270 268 266 264 262
284 292 300 305 307 316 314 313 311 309 310 310 311 310 308 307 308 307 306 306 308 309 307 306 306 303 295 286 280 277 275 274 273 271 269 266 265 265 267 268 265 262 259
291 293 297 298 300 307 311 309 309 309 310 311 310 306 302 304 307 307 310 313 314 312 312 309 306 301 296 294 284 278 279 279 277 276 274 272 268 266 265 266 268 265 259
281 287 293 300 301 301 306 309 308 309 306 304 306 304 308 312 312 315 317 315 313 314 314 317 313 319 312 313 307 296 289 288 287 287 285 283 279 274 269 266 264 259 251
295 297 295 296 297 307 306 303 301 304 307 309 308 311 316 313 314 314 314 313 316 317 320 334 334 328 331 322 315 316 312 308 301 294 290 284 276 271 270 264 261 256 248
296 292 296 300 304 302 301 302 304 306 309 312 311 312 309 311 313 313 312 314 317 319 320 327 328 324 325 328 321 315 311 307 303 302 294 289 281 276 271 264 256 253 248
300 293 294 299 300 303 305 305 309 312 312 308 307 307 310 313 312 310 311 317 316 316 312 319 327 326 325 324 323 324 319 310 306 307 299 294 282 276 279 264 255 247 242
303 293 301 306 307 308 310 310 309 309 308 306 308 310 311 310 308 307 313 312 315 313 303 309 314 316 321 323 322 322 323 317 308 309 304 297 288 276 280 266 248 242 237
306 299 303 305 306 309 309 308 308 308 308 308 309 309 307 305 303 307 311 306 310 306 297 305 310 313 316 317 319 319 318 315 313 311 301 300 294 287 286 261 243 235 227
303 306 306 305 306 307 306 306 306 306 305 306 308 306 303 302 303 306 308 302 305 296 289 299 308 313 317 316 315 317 315 310 312 313 303 303 298 295 288 273 241 229 226
304 303 301 302 303 302 302 303 304 306 308 309 307 303 302 303 305 302 305 299 298 297 292 296 303 309 313 317 323 324 321 318 313 321 311 308 308 297 289 266 247 238 232
298 299 301 301 302 304 307 308 311 311 309 306 303 302 302 302 300 300 301 294 295 297 303 303 300 305 315 322 328 330 326 322 319 322 315 318 318 307 288 263 259 234 230
305 307 305 305 306 310 312 313 313 309 305 302 301 301 301 302 301 299 295 292 297 298 299 303 305 313 317 324 327 335 331 325 320 323 318 327 328 312 301 283 244 229 222
303 303 299 302 310 316 315 315 311 304 302 303 304 304 303 300 297 297 296 293 292 297 302 305 308 311 315 321 324 324 326 321 314 311 318 330 334 311 323 290 228 219 215
306 307 305 306 305 311 312 312 302 305 307 307 306 305 303 303 305 304 302 297 294 297 303 306 311 312 316 320 323 323 322 320 314 309 312 336 344 335 305 286 227 210 210
297 291 297 299 302 307 310 305 306 306 307 309 309 308 308 307 307 307 306 305 303 301 305 311 313 317 321 322 325 325 322 318 315 314 306 334 355 27 63 82 174 180 181
286 284 283 283 290 307 309 304 305 308 312 311 310 309 309 308 308 308 309 309 308 309 312 316 322 325 326 328 330 329 328 328 319 314 311 326 357 36 50 66 87 104 173
284 272 278 290 313 308 301 303 308 313 313 311 310 310 309 309 312 315 316 316 317 318 324 334 333 334 337 338 340 341 341 339 342 327 332 200 20 54 87 129 166 190 191
302 310 311 307 297 301 308 313 315 315 317 319 320 320 321 320 323 331 332 329 320 339 345 344 347 348 348 350 350 354 0 1 1 3 4 187 143 99 116 144 188 133 92
360 344 333 331 329 322 322 328 330 325 323 325 324 323 325 325 324 341 353 349 360 9 1 3 4 359 4 8 12 13 14 12 13 18 24 166 186 173 151 150 130 122 132
8 1 357 357 354 349 348 345 339 337 336 336 335 334 336 340 5 21 25 34 41 33 22 22 17 16 21 27 27 29 28 27 27 25 22 47 183 195 181 172 166 162 170
5 6 6 11 5 360 1 356 353 352 353 355 358 2 13 31 46 58 61 57 52 39 37 33 32 37 44 42 41 40 38 35 33 32 29 26 165 190 195 192 189 188 190
15 12 18 22 19 18 19 18 17 17 22 25 26 36 49 64 72 69 67 55 48 50 44 41 40 44 48 48 46 43 41 40 40 40 40 39 53 125 186 200 204 203 205
34 31 36 33 31 31 28 28 31 36 41 44 49 56 62 68 70 65 58 53 49 50 47 43 42 45 50 53 51 50 48 46 44 43 45 48 54 74 127 167 192 209 216